Simultaneous Nadir Overpasses (SNOs) Predictions

Prediction of SNOs between LANDSAT-8 and NOAA-19 Satellite Orbit:

Table of predicted SNOs for the next 14.0 days since TLE Epoch: 5/15/2015
Index Date (LANDSAT-8) Time (LANDSAT-8) Lat,Lon (LANDSAT-8) SZA (LANDSAT-8 ) Date (NOAA-19) Time (NOAA-19) Lat,Lon (NOAA-19) SZA (NOAA-19 ) Distance(km) Time Diff (sec)
1 05/17/2015 10:14:10 73.22, 27.58 53.84 05/17/2015 10:13:49 73.23, 27.50 53.85 2.82 21
2 05/17/2015 11:03:40 -73.09,-165.04 126.30 05/17/2015 11:04:47 -73.11,-164.97 126.28 3.00 67
3 05/19/2015 14:58:25 73.30, -43.33 53.44 05/19/2015 14:57:13 73.29, -43.44 53.42 3.80 72
4 05/19/2015 15:47:55 -73.18, 124.05 126.70 05/19/2015 15:48:11 -73.19, 124.03 126.68 1.64 16
5 05/21/2015 20:32:11 -73.23, 53.08 127.10 05/21/2015 20:31:34 -73.24, 53.13 127.10 1.50 37
6 05/21/2015 21:21:38 73.15,-139.45 52.81 05/21/2015 21:22:36 73.17,-139.49 52.84 3.13 58
7 05/24/2015 01:16:17 -73.83, -16.74 126.91 05/24/2015 01:15:09 -73.88, -19.22 126.89 76.87 68
8 05/24/2015 02:05:54 73.22, 149.61 52.45 05/24/2015 02:05:59 73.20, 149.64 52.44 1.98 5
9 05/24/2015 02:55:37 -72.41, -44.30 128.38 05/24/2015 02:56:42 -72.41, -41.39 128.33 97.90 65
10 05/26/2015 06:50:10 73.31, 78.72 52.15 05/26/2015 06:49:23 73.29, 78.63 52.13 3.35 47
11 05/26/2015 07:39:40 -73.19,-113.88 127.98 05/26/2015 07:40:19 -73.17,-113.85 127.99 2.26 39
12 05/28/2015 12:23:57 -73.25, 175.16 128.29 05/28/2015 12:23:42 -73.25, 175.17 128.29 0.55 15
